Fredericksburg, VA

9:13 PM EST on December 10, 2016 (GMT -0500)
Shannon

Weather History for KEZF - November, 2012

Change the Weather History Date:

Monday, November 19, 2012

  Actual Average (KNYG) Record (KNYG)
Temperature  
Mean Temperature 52 °F -  
Max Temperature 57 °F 53 °F 71 °F (2016)
Min Temperature 47 °F 36 °F 19 °F (2014)
Degree Days  
Heating Degree Days 13    
Growing Degree Days 2 (Base 50)    
Moisture  
Dew Point 41 °F    
Average Humidity 67    
Maximum Humidity 74    
Minimum Humidity 56    
Precipitation  
Precipitation 0.00 in - - ()
Sea Level Pressure  
Sea Level Pressure 30.35 in    
Wind  
Wind Speed 5 mph (North)    
Max Wind Speed 10 mph    
Max Gust Speed -    
Visibility 10 miles    
Events      
Averages and records for this station are not official NWS values.
T = Trace of Precipitation, MM = Missing Value Source: NWS Daily Summary

Daily Weather History Graph

Daily Weather History Graph

Search for Another Location

Airport or City:

Trip Planner

Search our weather history database for the weather conditions in past years. The results will help you decide how hot, cold, wet, or windy it might be!

Date:

Astronomy

Nov. 19, 2012 Rise Set
Actual Time 6:55 AM EST 4:54 PM EST
Civil Twilight 6:27 AM EST 5:22 PM EST
Nautical Twilight 5:55 AM EST 5:55 PM EST
Astronomical Twilight 5:23 AM EST 6:26 PM EST
Moon 11:59 AM EST (11/19) 11:16 PM EST (11/19)
Length of Visible Light 10h 55m
Length of Day
9h 58m
Waxing Crescent, 40% of the Moon is Illuminated
Nov 19
Waxing Crescent
Nov 20
First Quarter
Nov 28
Full
Dec 6
Last Quarter
Dec 13
New

Hourly Weather History & Observations

Time (EST) Temp. Dew Point Humidity Pressure Visibility Wind Dir Wind Speed Gust Speed Precip Events Conditions
12:15 AM 49.1 °F 41.0 °F 74% 30.48 in 10.0 mi North 4.6 mph - N/A   Overcast
12:35 AM 49.1 °F 41.0 °F 74% 30.47 in 10.0 mi North 4.6 mph - N/A   Overcast
12:55 AM 49.1 °F 40.8 °F 73% 30.46 in 10.0 mi North 4.6 mph - N/A   Overcast
1:15 AM 49.1 °F 41.0 °F 74% 30.46 in 10.0 mi North 5.8 mph - N/A   Overcast
1:35 AM 49.1 °F 41.0 °F 74% 30.46 in 10.0 mi NNE 4.6 mph - N/A   Overcast
1:55 AM 49.3 °F 41.0 °F 73% 30.46 in 10.0 mi North 3.5 mph - N/A   Overcast
2:15 AM 49.3 °F 41.2 °F 74% 30.46 in 10.0 mi NNE 3.5 mph - N/A   Overcast
2:35 AM 49.5 °F 41.4 °F 74% 30.46 in 10.0 mi North 3.5 mph - N/A   Overcast
2:55 AM 49.6 °F 41.4 °F 73% 30.45 in 10.0 mi North 4.6 mph - N/A   Overcast
3:15 AM 49.6 °F 41.2 °F 73% 30.45 in 10.0 mi North 5.8 mph - N/A   Overcast
3:35 AM 49.6 °F 41.0 °F 72% 30.44 in 10.0 mi North 5.8 mph - N/A   Overcast
3:55 AM 49.3 °F 41.0 °F 73% 30.43 in 10.0 mi NNW 4.6 mph - N/A   Overcast
4:15 AM 49.1 °F 41.0 °F 74% 30.42 in 10.0 mi NNW 3.5 mph - N/A   Overcast
4:35 AM 48.7 °F 40.6 °F 74% 30.42 in 10.0 mi North 4.6 mph - N/A   Overcast
4:55 AM 48.6 °F 40.6 °F 74% 30.42 in 10.0 mi NNW 4.6 mph - N/A   Overcast
5:15 AM 48.4 °F 40.5 °F 74% 30.43 in 10.0 mi North 4.6 mph - N/A   Overcast
5:35 AM 48.4 °F 40.3 °F 74% 30.44 in 10.0 mi Calm Calm - N/A   Overcast
5:55 AM 48.2 °F 40.3 °F 74% 30.43 in 10.0 mi NNW 5.8 mph - N/A   Overcast
6:15 AM 48.4 °F 40.3 °F 74% 30.43 in 10.0 mi North 3.5 mph - N/A   Overcast
6:35 AM 48.4 °F 40.3 °F 74% 30.43 in 10.0 mi Calm Calm - N/A   Overcast
6:55 AM 48.4 °F 40.3 °F 74% 30.43 in 10.0 mi North 3.5 mph - N/A   Overcast
7:15 AM 48.4 °F 40.3 °F 74% 30.43 in 10.0 mi North 4.6 mph - N/A   Overcast
7:35 AM 48.6 °F 40.5 °F 74% 30.42 in 10.0 mi North 3.5 mph - N/A   Overcast
7:55 AM 49.1 °F 40.6 °F 73% 30.42 in 10.0 mi Calm Calm - N/A   Overcast
8:35 AM 50.0 °F 41.0 °F 71% 30.42 in 10.0 mi NNE 6.9 mph - N/A   Overcast
8:55 AM 50.5 °F 41.2 °F 70% 30.42 in 10.0 mi NNE 8.1 mph - N/A   Overcast
9:15 AM 50.9 °F 39.6 °F 65% 30.42 in 10.0 mi NNE 9.2 mph - N/A   Overcast
9:35 AM 51.4 °F 41.5 °F 69% 30.40 in 10.0 mi North 6.9 mph - N/A   Overcast
9:55 AM 52.0 °F 41.5 °F 68% 30.40 in 10.0 mi NNE 9.2 mph - N/A   Overcast
10:15 AM 52.7 °F 41.9 °F 67% 30.39 in 10.0 mi NNE 5.8 mph - N/A   Overcast
10:35 AM 52.7 °F 41.9 °F 67% 30.39 in 10.0 mi NNE 6.9 mph - N/A   Overcast
10:55 AM 52.9 °F 41.9 °F 66% 30.39 in 10.0 mi North 9.2 mph - N/A   Overcast
11:15 AM 53.1 °F 42.1 °F 66% 30.38 in 10.0 mi North 9.2 mph - N/A   Overcast
11:35 AM 53.6 °F 41.9 °F 65% 30.37 in 10.0 mi North 9.2 mph - N/A   Overcast
11:55 AM 53.2 °F 41.4 °F 64% 30.36 in 10.0 mi North 8.1 mph - N/A   Overcast
12:15 PM 53.6 °F 41.5 °F 64% 30.35 in 10.0 mi North 9.2 mph - N/A   Overcast
12:35 PM 54.5 °F 41.9 °F 62% 30.33 in 10.0 mi NNW 8.1 mph - N/A   Overcast
12:55 PM 54.7 °F 41.5 °F 61% 30.32 in 10.0 mi NNE 8.1 mph - N/A   Overcast
1:15 PM 55.6 °F 41.9 °F 60% 30.31 in 10.0 mi NNW 8.1 mph - N/A   Overcast
1:35 PM 56.1 °F 41.7 °F 58% 30.31 in 10.0 mi North 3.5 mph - N/A   Mostly Cloudy
1:55 PM 55.8 °F 41.7 °F 59% 30.30 in 10.0 mi North 10.4 mph - N/A   Mostly Cloudy
2:15 PM 57.6 °F 42.1 °F 56% 30.30 in 10.0 mi North 5.8 mph - N/A   Mostly Cloudy
2:35 PM 56.5 °F 41.7 °F 58% 30.30 in 10.0 mi North 6.9 mph - N/A   Overcast
2:55 PM 55.9 °F 41.9 °F 59% 30.30 in 10.0 mi North 5.8 mph - N/A   Overcast
3:15 PM 56.3 °F 41.5 °F 58% 30.30 in 10.0 mi North 6.9 mph - N/A   Overcast
3:35 PM 56.8 °F 41.5 °F 57% 30.29 in 10.0 mi North 8.1 mph - N/A   Overcast
3:55 PM 55.9 °F 41.2 °F 58% 30.29 in 10.0 mi North 8.1 mph - N/A   Overcast
4:15 PM 55.4 °F 40.6 °F 58% 30.29 in 10.0 mi NNW 5.8 mph - N/A   Overcast
4:35 PM 55.0 °F 40.6 °F 58% 30.28 in 10.0 mi North 4.6 mph - N/A   Overcast
4:55 PM 54.5 °F 40.6 °F 60% 30.28 in 10.0 mi NNW 3.5 mph - N/A   Overcast
5:15 PM 54.1 °F 40.6 °F 60% 30.28 in 10.0 mi North 3.5 mph - N/A   Overcast
5:35 PM 53.2 °F 40.5 °F 62% 30.28 in 10.0 mi NNW 4.6 mph - N/A   Mostly Cloudy
5:55 PM 52.5 °F 40.5 °F 64% 30.28 in 10.0 mi NNW 3.5 mph - N/A   Scattered Clouds
6:15 PM 52.3 °F 40.5 °F 64% 30.28 in 10.0 mi North 5.8 mph - N/A   Scattered Clouds
6:35 PM 51.8 °F 40.6 °F 66% 30.28 in 10.0 mi NNW 4.6 mph - N/A   Mostly Cloudy
6:55 PM 51.8 °F 40.6 °F 66% 30.27 in 10.0 mi NNW 4.6 mph - N/A   Overcast
7:15 PM 51.8 °F 40.3 °F 65% 30.28 in 10.0 mi Calm Calm - N/A   Overcast
7:35 PM 51.6 °F 40.1 °F 65% 30.27 in 10.0 mi North 5.8 mph - N/A   Overcast
7:55 PM 51.8 °F 39.6 °F 63% 30.27 in 10.0 mi North 8.1 mph - N/A   Overcast
8:15 PM 51.1 °F 39.6 °F 65% 30.26 in 10.0 mi Calm Calm - N/A   Overcast
8:35 PM 51.1 °F 39.6 °F 65% 30.26 in 10.0 mi Calm Calm - N/A   Overcast
8:55 PM 51.1 °F 39.6 °F 65% 30.26 in 10.0 mi Calm Calm - N/A   Overcast
9:15 PM 50.9 °F 39.4 °F 65% 30.25 in 10.0 mi North 3.5 mph - N/A   Overcast
9:35 PM 50.5 °F 39.4 °F 66% 30.25 in 10.0 mi Calm Calm - N/A   Overcast
10:35 PM 47.8 °F 39.4 °F 72% 30.24 in 10.0 mi Calm Calm - N/A   Scattered Clouds
10:55 PM 47.5 °F 39.2 °F 73% 30.24 in 10.0 mi NW 4.6 mph - N/A   Scattered Clouds
11:15 PM 47.7 °F 39.4 °F 73% 30.23 in 10.0 mi NW 5.8 mph - N/A   Scattered Clouds
11:35 PM 47.5 °F 39.4 °F 73% 30.23 in 10.0 mi NW 5.8 mph - N/A   Scattered Clouds
11:55 PM 47.3 °F 39.2 °F 73% 30.22 in 10.0 mi NW 3.5 mph - N/A   Mostly Cloudy